📊 Raw Sensor Data
Showing records 47451 to 47475 of 85,085 total
| ID | Distance (ft) | Battery V | Battery A | Int Temp (°F) | Int Humid (%) | Ext Temp (°F) | Solar V | RSSI | SNR | Time Stamp |
|---|---|---|---|---|---|---|---|---|---|---|
| 37647 | 15.5 | 3.84 | -5 | 55 | 42 | 57 | 0.00 | -70 | 8 | 04/12/2025 10:45 PM |
| 37646 | 15.4 | 3.79 | -5 | 55 | 42 | 57 | 0.00 | -70 | 8 | 04/12/2025 10:30 PM |
| 37645 | 15.5 | 3.79 | -5 | 55 | 43 | 57 | 0.00 | -71 | 7 | 04/12/2025 10:15 PM |
| 37644 | 15.5 | 3.79 | -5 | 56 | 43 | 57 | 0.00 | -70 | 8 | 04/12/2025 10:00 PM |
| 37643 | -- | 3.80 | -5 | 56 | 43 | 58 | 0.10 | -70 | 7 | 04/12/2025 09:45 PM |
| 37642 | -- | 3.85 | -5 | 56 | 44 | 58 | 0.00 | -71 | 8 | 04/12/2025 09:30 PM |
| 37641 | -- | 3.85 | -5 | 57 | 45 | 58 | 0.00 | -71 | 8 | 04/12/2025 09:15 PM |
| 37640 | 15.5 | 3.85 | -5 | 58 | 45 | 59 | 0.00 | -71 | 8 | 04/12/2025 09:00 PM |
| 37639 | 15.5 | 3.85 | -5 | 58 | 46 | 59 | 0.00 | -69 | 8 | 04/12/2025 08:45 PM |
| 37638 | -- | 3.85 | -5 | 59 | 47 | 60 | 0.00 | -69 | 8 | 04/12/2025 08:30 PM |
| 37637 | -- | 3.85 | -5 | 61 | 48 | 61 | 0.00 | -70 | 8 | 04/12/2025 08:15 PM |
| 37636 | -- | 3.85 | -5 | 63 | 49 | 62 | 0.70 | -69 | 8 | 04/12/2025 08:00 PM |
| 37635 | -- | 3.84 | -9 | 65 | 50 | 64 | 3.00 | -69 | 8 | 04/12/2025 07:45 PM |
| 37634 | -- | 3.79 | 0 | 69 | 50 | 65 | 4.60 | -73 | 8 | 04/12/2025 07:30 PM |
| 37633 | 15.6 | 3.87 | 0 | 74 | 49 | 68 | 4.50 | -69 | 8 | 04/12/2025 07:15 PM |
| 37632 | 15.6 | 3.89 | 0 | 77 | 48 | 70 | 4.50 | -70 | 8 | 04/12/2025 07:00 PM |
| 37631 | 15.7 | 3.98 | 0 | 82 | 46 | 74 | 5.10 | -69 | 8 | 04/12/2025 06:30 PM |
| 37630 | 15.7 | 3.87 | 0 | 84 | 45 | 77 | 5.10 | -70 | 8 | 04/12/2025 06:15 PM |
| 37629 | -- | 3.82 | 0 | 85 | 44 | 74 | 5.10 | -70 | 8 | 04/12/2025 06:00 PM |
| 37628 | -- | 3.82 | 0 | 87 | 42 | 75 | 5.10 | -70 | 9 | 04/12/2025 05:45 PM |
| 37627 | 15.7 | 3.82 | 0 | 86 | 43 | 76 | 5.10 | -69 | 8 | 04/12/2025 05:30 PM |
| 37626 | 15.7 | 3.82 | 0 | 86 | 42 | 75 | 5.10 | -69 | 8 | 04/12/2025 05:15 PM |
| 37625 | -- | 4.03 | 0 | 86 | 42 | 77 | 5.10 | -69 | 9 | 04/12/2025 05:00 PM |
| 37624 | -- | 3.86 | 0 | 85 | 41 | 74 | 5.10 | -69 | 9 | 04/12/2025 04:46 PM |
| 37623 | -- | 3.82 | 0 | 86 | 40 | 74 | 5.10 | -70 | 9 | 04/12/2025 04:30 PM |